OneWeb SL0652

operational
NORAD ID: 55814 Int'l Des: 2023-029 Owner: ONEWEBN Country: UK Constellation: oneweb
LEOCIRCULARPOLARONEWEB_TYPE

Über OneWeb SL0652

Beschreibung wird geladen...

Live-Position

3D-Globus wird geladen...

Nächste Überflüge

Höhenverlauf

Altitude vs Time

uPlot chart will show altitude changes over time

Zweizeiliger Elementsatz

1 55814U 23029U 25304.58776369 -.00000205 00000-0 -58700-3 0 9996
2 55814 87.9008 335.2670 0001770 90.9073 269.2260 13.14503775129337
Epoch: 31. Okt. 2025 • Age: 8 hours

Aktueller Status

Höhe 1222.9 km
Geschwindigkeit 7.24 km/s
Subsatellitenpunkt -42.23°S, 138.53°E
Startdatum 9. März 2023
Alter 2.6 years
Typ internet

Technische Details

Klassifizierung Payload
Masse 148.00 kg
Trockenmasse 140.00 kg
Gesamtmasse 148.00 kg
Länge 1.30 m
Durchmesser 1.00 m
Spannweite 5.00 m
Form Trapezoid+2 pan
Hersteller ONEWUS
Bus-Typ ARROW
Phasenstatus In Orbit
Besitzer/Staat ONEWEBN/UK

Große Konstellationen

Loading constellations...